Overview Statistics Trail Chart Weather Telemetry Raw packets
 

This is the latest recevied weather packets stored in our database for station/object SV9TNF-56. If no packets are shown the sender has not sent any weather packets the latest 10 day(s).

<< 3 4 5 6 7 8 9 >>
Time Temp. Humidity Pressure Rain* Wind** Luminosity Snow
1788629869 25.56° C 54% 1012.9 hPa 0 mm 14.31 m/s, 177° - -
1788629569 25.56° C 54% 1013.2 hPa 0 mm 25.48 m/s, 132° - -
1788629269 25.56° C 54% 1013.2 hPa 0 mm 21.9 m/s, 84° - -
1788628969 25.56° C 54% 1012.9 hPa 0 mm 12.07 m/s, 122° - -
1788628668 25.56° C 53% 1012.9 hPa 0 mm 9.83 m/s, 162° - -
1788628369 25.56° C 52% 1012.9 hPa 0 mm 16.99 m/s, 180° - -
1788628068 25.56° C 54% 1013.2 hPa 0 mm 13.41 m/s, 213° - -
1788627802 25.56° C 55% 1013.2 hPa 0 mm 21.01 m/s, 126° - -
1788627468 25.56° C 55% 1012.9 hPa 0 mm 9.83 m/s, 132° - -
1788627168 25° C 56% 1013.2 hPa 0 mm 16.99 m/s, 120° - -
1788626868 25.56° C 57% 1013.2 hPa 0 mm 21.46 m/s, 132° - -
1788626568 25.56° C 55% 1012.9 hPa 0 mm 14.75 m/s, 116° - -
1788626268 25.56° C 54% 1013.2 hPa 0 mm 8.49 m/s, 178° - -
1788625974 25.56° C 52% 1012.9 hPa 0 mm 13.86 m/s, 132° - -
1788625668 25.56° C 51% 1012.9 hPa 0 mm 10.28 m/s, 86° - -
1788625368 25.56° C 51% 1012.5 hPa 0 mm 29.06 m/s, 117° - -
1788625067 25.56° C 51% 1012.5 hPa 0 mm 33.53 m/s, 126° - -
1788624767 25.56° C 52% 1012.5 hPa 0 mm 28.16 m/s, 96° - -
1788624467 25.56° C 51% 1012.9 hPa 0 mm 22.8 m/s, 210° - -
1788624167 26.11° C 52% 1012.9 hPa 0 mm 21.01 m/s, 74° - -
1788623867 26.11° C 53% 1013.2 hPa 0 mm 6.26 m/s, 124° - -
1788623567 26.11° C 52% 1013.2 hPa 0 mm 16.09 m/s, 120° - -
1788623267 26.11° C 51% 1013.2 hPa 0 mm 14.75 m/s, 112° - -
1788622967 26.11° C 52% 1012.9 hPa 0 mm 19.67 m/s, 237° - -
1788622667 26.11° C 53% 1013.2 hPa 0 mm 10.28 m/s, 212° - -

* Rain latest hour (hover to see other rain measurements)
** Current wind speed in m/s (hover to see current wind gust speed)